This demonstration page uses our WeatherBlox Daily Observations layout. Learn more.

Left ArrowRight Arrow

Hourly Observations for October 31, 2021

Temp ( °F °C ) Dew Point ( °F °C ) Humidity (%) Winds ( mph kmh ) Pressure ( in mb ) Visibility ( mi km ) Precip ( " mm )
12:53 am 00:53 Clear 21 -6.1 17 -8.3 85 85 WSW 8 13 30.49 1033 10 16 0.00 0.00
1:53 am 01:53 Clear 21 -6.1 16 -8.9 81 81 SW 6 9 30.50 1033 10 16 0.00 0.00
2:53 am 02:53 Clear 19 -7.2 15 -9.4 84 84 SW 9 15 30.50 1033 10 16 0.00 0.00
3:53 am 03:53 Clear 20 -6.7 16 -8.9 85 85 SW 9 15 30.49 1033 10 16 0.00 0.00
4:53 am 04:53 Clear 18 -7.8 15 -9.4 88 88 WSW 8 13 30.50 1033 10 16 0.00 0.00
5:53 am 05:53 Clear 15 -9.4 13 -10.6 91 91 WSW 3 6 30.50 1033 10 16 0.00 0.00
6:53 am 06:53 Clear 15 -9.4 13 -10.6 91 91 WSW 6 9 30.51 1033 10 16 0.00 0.00
7:53 am 07:53 Clear 16 -8.9 13 -10.6 88 88 WSW 6 9 30.52 1033 10 16 0.00 0.00
8:53 am 08:53 Sunny 18 -7.8 15 -9.4 88 88 SW 7 11 30.53 1034 10 16 0.00 0.00
9:53 am 09:53 Sunny 20 -6.7 18 -7.8 92 92 SW 8 13 30.53 1034 10 16 0.00 0.00
10:53 am 10:53 Sunny 24 -4.4 22 -5.6 91 91 SW 12 19 30.53 1034 10 16 0.00 0.00
11:53 am 11:53 Sunny 28 -2.2 24 -4.4 85 85 WSW 10 17 30.52 1034 10 16 0.00 0.00
12:53 pm 12:53 Sunny 30 -1.1 25 -3.9 82 82 SW 8 13 30.50 1033 10 16 0.00 0.00
1:53 pm 13:53 Sunny 32 0 25 -3.9 75 75 SSW 8 13 30.48 1032 10 16 0.00 0.00
2:53 pm 14:53 Sunny 35 1.7 23 -5 61 61 SSW 6 9 30.46 1031 10 16 0.00 0.00
3:53 pm 15:53 Sunny 36 2.2 21 -6.1 55 55 SW 3 6 30.44 1031 10 16 0.00 0.00
4:53 pm 16:53 Sunny 37 2.8 18 -7.8 46 46 WNW 3 6 30.43 1031 10 16 0.00 0.00
5:53 pm 17:53 Sunny 35 1.7 19 -7.2 52 52 Calm 30.45 1031 10 16 0.00 0.00
6:53 pm 18:53 Clear 25 -3.9 20 -6.7 81 81 S 8 13 30.47 1032 10 16 0.00 0.00
7:53 pm 19:53 Clear 24 -4.4 19 -7.2 81 81 S 9 15 30.46 1032 10 16 0.00 0.00
8:53 pm 20:53 Clear 24 -4.4 17 -8.3 75 75 S 5 7 30.47 1032 10 16 0.00 0.00
9:53 pm 21:53 Clear 21 -6.1 17 -8.3 85 85 NW 5 7 30.49 1032 10 16 0.00 0.00
10:53 pm 22:53 Clear 21 -6.1 17 -8.3 85 85 Calm 30.48 1032 10 16 0.00 0.00
11:53 pm 23:53 Clear 18 -7.8 14 -10 84 84 SE 3 6 30.49 1033 10 16 0.00 0.00

Powered by AerisWeather